Flag for United Kingdom Weather past 2 weeks in Bridlington, England, United Kingdom

Now
37 °F

Chilly.


Feels Like: 29 °F
Forecast: N/A
Wind: 13 mph from Northwest

Location: Bridlington Mrsc

Current Time: Jan 26, 2015 at 11:26:33 PM

Latest Report: Jan 26, 2015 at 10:00 PM


Visibility: N/A

Pressure: 30.23 "Hg

Humidity: 83%

Dew point: 33 °F

Location of BridlingtonLocation

Historic Weather in Bridlington — Graph

°F

Bridlington temperature yesterday

Maximum temperature yesterday: 48 °F (at 3:00 PM)
Minimum temperature yesterday: 36 °F (at 1:00 AM)
Average temperature yesterday: 42 °F

Past Weeks' High & Low Weather Summary

 TemperatureHumidityPressure
High51 °F (Jan 12, 11:00 AM)100% (Jan 20, 10:00 AM)30.34 "Hg (Jan 20, 10:00 AM)
Low27 °F (Jan 18, 8:00 AM)58% (Jan 14, 2:00 PM)28.82 "Hg (Jan 15, 2:00 AM)
Average38 °F82%29.77 "Hg
* Reported Jan 11 10:00 PM — Jan 26 10:00 PM, Bridlington, Weather by CustomWeather, © 2014

Note: Actual official high and low records may vary slightly from our data, if they occured in-between our weather recording intervals... More about our weather records

Advertising

Bridlington weather history for previous 24 hours

 ConditionsComfort  
Time TempWeatherWind HumidityBarometerVisibility
10:00 PM
Jan 26
37 °FChilly.13 mph83%30.23 "HgN/A
8:00 PM38 °FChilly.12 mph80%30.22 "HgN/A
7:00 PM38 °FChilly.12 mph80%30.22 "HgN/A
6:00 PM39 °FChilly.13 mph79%30.20 "HgN/A
5:00 PM40 °FQuite cool.12 mph76%30.16 "HgN/A
4:00 PM43 °FQuite cool.14 mph70%30.14 "HgN/A
3:00 PM45 °FQuite cool.16 mph66%30.11 "HgN/A
2:00 PM44 °FQuite cool.16 mph67%30.10 "HgN/A
1:00 PM45 °FCool.14 mph68%30.09 "HgN/A
12:00 PM46 °FCool.18 mph64%30.09 "HgN/A
11:00 AM47 °FCool.16 mph63%30.09 "HgN/A
10:00 AM46 °FCool.9 mph68%30.08 "HgN/A
9:00 AM42 °FQuite cool.8 mph79%30.07 "HgN/A
8:00 AM43 °FQuite cool.7 mph85%30.06 "HgN/A
7:00 AM44 °FQuite cool.8 mph88%30.05 "HgN/A
6:00 AM47 °FCool.8 mph93%30.03 "HgN/A
5:00 AM47 °FCool.10 mph96%30.01 "HgN/A
4:00 AM46 °FCool.7 mph96%30.02 "HgN/A
3:00 AM46 °FCool.9 mph95%30.03 "HgN/A
2:00 AM46 °FCool.9 mph95%30.04 "HgN/A
1:00 AM45 °FQuite cool.6 mph97%30.06 "HgN/A
12:00 AM44 °FQuite cool.5 mph95%30.09 "HgN/A
11:00 PM
Jan 25
45 °FCool.10 mph93%30.11 "HgN/A
Weather by CustomWeather, © 2014

See weather overviewHow to use our weather pages